TimeEDT,TemperatureF,Dew PointF,Humidity,Sea Level PressureIn,VisibilityMPH,Wind Direction,Wind SpeedMPH,Gust SpeedMPH,PrecipitationIn,Events,Conditions,WindDirDegrees,DateUTC
12:54 AM,60.1,54.0,80,29.96,10.0,NW,5.8,-,N/A,,Scattered Clouds,320,2013-06-14 04:54:00
1:54 AM,59.0,54.0,83,29.96,10.0,NW,5.8,-,N/A,,Partly Cloudy,320,2013-06-14 05:54:00
2:54 AM,57.9,55.0,90,29.96,10.0,North,5.8,-,N/A,,Clear,350,2013-06-14 06:54:00
3:54 AM,57.9,55.0,90,29.96,10.0,NNW,5.8,-,N/A,,Clear,340,2013-06-14 07:54:00
4:54 AM,57.0,55.9,96,29.97,10.0,NNW,5.8,-,N/A,,Clear,340,2013-06-14 08:54:00
5:54 AM,57.0,55.0,93,29.99,10.0,NNW,6.9,-,N/A,,Clear,340,2013-06-14 09:54:00
6:54 AM,57.9,55.9,93,30.02,10.0,NNW,3.5,-,N/A,,Clear,340,2013-06-14 10:54:00
7:54 AM,62.1,57.0,84,30.04,10.0,North,6.9,-,N/A,,Clear,360,2013-06-14 11:54:00
8:54 AM,66.0,57.9,75,30.04,10.0,NE,8.1,-,N/A,,Clear,40,2013-06-14 12:54:00
9:54 AM,69.1,57.9,68,30.08,10.0,Calm,Calm,-,N/A,,Partly Cloudy,0,2013-06-14 13:54:00
10:54 AM,71.1,57.9,63,30.08,10.0,North,8.1,-,N/A,,Scattered Clouds,10,2013-06-14 14:54:00
11:54 AM,73.0,60.1,64,30.09,10.0,North,6.9,-,N/A,,Scattered Clouds,360,2013-06-14 15:54:00
12:54 PM,75.0,57.9,55,30.08,10.0,North,10.4,-,N/A,,Scattered Clouds,360,2013-06-14 16:54:00
1:54 PM,75.0,57.9,55,30.06,10.0,North,8.1,-,N/A,,Scattered Clouds,10,2013-06-14 17:54:00
2:54 PM,75.9,55.9,50,30.06,10.0,ENE,8.1,-,N/A,,Scattered Clouds,70,2013-06-14 18:54:00
3:54 PM,78.1,55.0,45,30.06,10.0,Calm,Calm,-,N/A,,Mostly Cloudy,0,2013-06-14 19:54:00
4:54 PM,77.0,55.0,47,30.05,10.0,WNW,4.6,-,N/A,,Mostly Cloudy,300,2013-06-14 20:54:00
5:54 PM,77.0,55.0,47,30.05,10.0,WNW,3.5,-,N/A,,Mostly Cloudy,300,2013-06-14 21:54:00
6:54 PM,78.1,53.1,42,30.04,10.0,Calm,Calm,-,N/A,,Scattered Clouds,0,2013-06-14 22:54:00
7:54 PM,77.0,55.9,48,30.03,10.0,NNW,3.5,-,N/A,,Scattered Clouds,340,2013-06-14 23:54:00
8:54 PM,75.0,54.0,48,30.04,10.0,Calm,Calm,-,N/A,,Scattered Clouds,0,2013-06-15 00:54:00
9:54 PM,71.1,55.9,59,30.04,10.0,Calm,Calm,-,N/A,,Scattered Clouds,0,2013-06-15 01:54:00
10:54 PM,66.9,57.9,73,30.05,10.0,Calm,Calm,-,N/A,,Scattered Clouds,0,2013-06-15 02:54:00
11:54 PM,64.9,59.0,81,30.04,10.0,Calm,Calm,-,N/A,,Scattered Clouds,0,2013-06-15 03:54:00